Tracking 20040 objects as of 18-Nov-2019
Live streaming from Space Station
objects crossing your sky now

FLOCK 2K 24

Track FLOCK 2K 24 now!
10-day predictions
FLOCK 2K 24 is classified as:


NORAD ID: 42857
Int'l Code: 2017-042AJ
Perigee: 442.7 km
Apogee: 456.5 km
Inclination: 96.9 °
Period: 93.4 minutes
Semi major axis: 6820 km
RCS: Unknown
Launch date: July 14, 2017
Source: United States (US)
Launch site: TYURATAM MISSILE AND SPACE COMPLEX (TTMTR)
aabbcc
Your satellite tracking list
Your tracking list is empty




NASA's NSSDC Master Catalog

Two Line Element Set (TLE):
1 42857U 17042AJ  19321.82811505 +.00005809 +00000-0 +14146-3 0  9997
2 42857 096.9157 196.4938 0010090 034.4718 325.7182 15.41236409131381
Source of the keplerian elements: AFSPC